Location: *
(55.6049°S, 142.1985°W)
Time: 15:24:00
(UTC+00:00)

Cosmos 44 Rocket - Pass Details

Date: 12 May 2021
Orbit: 636 x 754 km, 65.1° (Epoch: 17 June)

Event Time Altitude Azimuth Distance (km) Brightness Sun altitude
Exits shadow 16:28:22 - 268° (W) 2,397 5.5 -6.5°
Reaches altitude 10° 16:29:17 10° 263° (W) 2,075 5.1 -6.4°
Maximum altitude 16:33:29 32° 199° (SSW) 1,128 4.1 -5.8°
Drops below altitude 10° 16:37:42 10° 135° (SE) 2,065 6.0 -5.3°
Sets 16:40:13 0° 124° (SE) 2,979 7.0 -5.0°
